03.05.2024;22:00;11
03.05.2024;21:00;10
03.05.2024;20:00;10
03.05.2024;19:00;11
03.05.2024;18:00;9
03.05.2024;17:00;8
03.05.2024;16:00;7
03.05.2024;15:00;7
03.05.2024;14:00;7
03.05.2024;13:00;6
03.05.2024;12:00;5
03.05.2024;11:00;4
03.05.2024;10:00;4
03.05.2024;09:00;4
03.05.2024;08:00;5
03.05.2024;07:00;4
03.05.2024;06:00;4
03.05.2024;05:00;3
03.05.2024;04:00;3
03.05.2024;03:00;3
03.05.2024;02:00;3
03.05.2024;01:00;4
02.05.2024;24:00;4
02.05.2024;23:00;5
02.05.2024;22:00;7
02.05.2024;21:00;9
02.05.2024;20:00;11
02.05.2024;19:00;14
02.05.2024;18:00;15
02.05.2024;17:00;23
02.05.2024;16:00;18
02.05.2024;15:00;16
02.05.2024;14:00;14
02.05.2024;13:00;13
02.05.2024;12:00;14
02.05.2024;11:00;11
02.05.2024;10:00;12
02.05.2024;09:00;13
02.05.2024;08:00;13
02.05.2024;07:00;13
02.05.2024;06:00;13
02.05.2024;05:00;13
02.05.2024;04:00;12
02.05.2024;03:00;13
02.05.2024;02:00;14
02.05.2024;01:00;14
01.05.2024;24:00;15
01.05.2024;23:00;21
01.05.2024;22:00;21
01.05.2024;21:00;24
01.05.2024;20:00;24
01.05.2024;19:00;21
01.05.2024;18:00;20
01.05.2024;17:00;20
01.05.2024;16:00;23
01.05.2024;15:00;23
01.05.2024;14:00;22
01.05.2024;13:00;21
01.05.2024;12:00;22
01.05.2024;11:00;27
01.05.2024;10:00;28
01.05.2024;09:00;32
01.05.2024;08:00;40
01.05.2024;07:00;45
01.05.2024;06:00;44
01.05.2024;05:00;52
01.05.2024;04:00;62
01.05.2024;03:00;62
01.05.2024;02:00;61
01.05.2024;01:00;49
30.04.2024;24:00;52
30.04.2024;23:00;62
30.04.2024;22:00;55
30.04.2024;21:00;48
30.04.2024;20:00;45
30.04.2024;19:00;45
30.04.2024;18:00;39
30.04.2024;17:00;33
30.04.2024;16:00;29
30.04.2024;15:00;27
30.04.2024;14:00;25
30.04.2024;13:00;21
30.04.2024;12:00;19
30.04.2024;11:00;19
30.04.2024;10:00;21
30.04.2024;09:00;31
30.04.2024;08:00;39
30.04.2024;07:00;34
30.04.2024;06:00;27
30.04.2024;05:00;27
30.04.2024;04:00;27
30.04.2024;03:00;29
30.04.2024;02:00;28
30.04.2024;01:00;28
29.04.2024;24:00;26
29.04.2024;23:00;27
29.04.2024;22:00;25
29.04.2024;21:00;19
29.04.2024;20:00;19
29.04.2024;19:00;19
29.04.2024;18:00;13
29.04.2024;17:00;13
29.04.2024;16:00;11
29.04.2024;15:00;11
29.04.2024;14:00;9
29.04.2024;13:00;8
29.04.2024;12:00;10
29.04.2024;11:00;13
29.04.2024;10:00;15
29.04.2024;09:00;18
29.04.2024;08:00;17
29.04.2024;07:00;14
29.04.2024;06:00;9
29.04.2024;05:00;8
29.04.2024;04:00;6
29.04.2024;03:00;8
29.04.2024;02:00;7
29.04.2024;01:00;7
28.04.2024;24:00;8
28.04.2024;23:00;7
28.04.2024;22:00;8
28.04.2024;21:00;9
28.04.2024;20:00;9
28.04.2024;19:00;10
28.04.2024;18:00;10
28.04.2024;17:00;9
28.04.2024;16:00;9
28.04.2024;15:00;7
28.04.2024;14:00;6
28.04.2024;13:00;7
28.04.2024;12:00;8
28.04.2024;11:00;8
28.04.2024;10:00;7
28.04.2024;09:00;9
28.04.2024;08:00;10
28.04.2024;07:00;9
28.04.2024;06:00;10
28.04.2024;05:00;12
28.04.2024;04:00;10
28.04.2024;03:00;8
28.04.2024;02:00;7
28.04.2024;01:00;8
